Weather in Sosnytsia

Ukraine / Chernihiv Region     51˚31′34″N   32˚30′52″E
temp.,
°C
wind,
m/s
gust,
m/s
humid.,
%
clouds,
%
prec.,
mm/h
press.,
hPa
HPBL,
m
27 november, fri
fri2723:00+3˚sw4109594 0.0 1020294
02:00+1˚sw499252 0.0 1018279
05:00sw510890 0.0 1017329
08:00sw511890 0.0 1016383
11:00+2˚sw598252 0.0 1016417
14:00+3˚wsw5108576 0.0 1015552
17:00+2˚wsw5989100 0.3 1015531
20:00+2˚sw51089100 0.3 1016410
28 november, sat
sat2823:00+2˚wsw51089100 0.0 1017379
02:00+2˚w4792100 0.0 1017373
05:00ssw239641 0.0 101828
08:00+1˚ssw239746 0.0 1018110
11:00+2˚sw2388100 0.0 1019311
14:00+3˚e1288100 0.0 1019242
17:00+2˚ene2398100 0.1 1019238
20:00+2˚ene1198100 0.6 102081
29 november, sun
sun2923:00+2˚nnw1298100 0.2 101985
02:00+2˚nnw2298100 0.2 1020118
05:00+2˚nne2396100 0.0 1019115
08:00+1˚n3497100 1.1 1018201
11:00+1˚nnw3397100 2.3 1018131
14:00+1˚wnw2397100 3.7 1019158
17:00+2˚wnw2398100 0.2 1019185
20:00+1˚wnw1297100 0.2 1020167
30 november, mon
mon3023:00+1˚wnw1197100 0.2 1021101
02:00+1˚wnw1296100 0.3 1022138
05:00+1˚nw1192100 0.0 1022125
08:00+1˚nw1286100 0.0 1024212
11:00+1˚nw1177100 0.0 1024498
14:00+2˚n2376100 0.0 1025498
17:00+1˚n2490100 0.1 1025310
20:00nne3497100 1.3 1026250
1 december, tue
tue123:00n4798100 2.1 1026304
02:00n4898100 4.3 1026370
05:00nne4698100 1.4 1026232
08:00+1˚e23100100 1.6 1026114
11:00+2˚e3699100 0.0 1026255
14:00+2˚e3694100 0.0 1026247
17:00+1˚e4890100 0.0 1026362
20:00+1˚ese4889100 0.0 1027535